Tracking 34138 objects as of 17-May-2026
HD Live streaming from Space Station
objects crossing your sky now

DIAMANT R/B

Track DIAMANT R/B now!
10-day predictions


NORAD ID: 2017
Int'l Code: 1966-013B
Perigee: 501.1 km
Apogee: 2,087.5 km
Inclination: 34.1 °
Period: 111.3 minutes
Semi major axis: 7665 km
RCS: 0.7635 m2 (medium)
Launch date: February 17, 1966
Source: France (FR)
Launch site: HAMMA GUIRA SPACE TRACK RANGE (HGSTR)

Note: This is a ROCKET BODY
Your satellite tracking list
Your tracking list is empty




NASA's NSSDC Master Catalog

Two Line Element Set (TLE):
1 02017U 66013B   26136.92022225  .00000571  00000-0  15082-3 0  9990
2 02017  34.0639 230.0640 1034823   1.3077 358.9956 12.93627555765728
Source of the keplerian elements: AFSPC